Weather History for Stampede Pass, WA

Change the Weather History Date:

Wednesday, February 29, 2012

  Actual Average Record
Temperature  
Mean Temperature 22 °F -  
Max Temperature 25 °F 31 °F 48 °F (2008)
Min Temperature 19 °F 24 °F 19 °F (2012)
Degree Days  
Heating Degree Days 43    
Moisture  
Dew Point 20 °F    
Average Humidity 93    
Maximum Humidity 100    
Minimum Humidity 86    
Precipitation  
Precipitation 0.34 in - - ()
Sea Level Pressure  
Sea Level Pressure 29.52 in    
Wind  
Wind Speed 4 mph (East)    
Max Wind Speed 7 mph    
Max Gust Speed 18 mph    
Visibility 2 miles    
Events Fog , Snow    
Averages and records for this station are not official NWS values.
T = Trace of Precipitation, MM = Missing Value Source: NWS Daily Summary

Daily Weather History Graph

Daily Weather History Graph

Search for Another Location

Airport:

Trip Planner

Search our weather history database for the weather conditions in past years. The results will help you decide how hot, cold, wet, or windy it might be!

Date:

Astronomy

Feb. 29, 2012 Rise Set
Actual Time 6:46 AM PST 5:49 PM PST
Civil Twilight 6:15 AM PST 6:20 PM PST
Nautical Twilight 5:40 AM PST 6:56 PM PST
Astronomical Twilight 5:04 AM PST 7:31 PM PST
Moon 10:09 AM PST (2/29) 1:12 AM PST (2/29)
Length of Visible Light 12h 05m
Length of Day
11h 03m
Waxing Crescent, 48% of the Moon is Illuminated
Feb 29
Waxing Crescent
Feb 29
First Quarter
Mar 8
Full
Mar 14
Last Quarter
Mar 22
New

Hourly Weather History & Observations

Time (PST) Temp. Windchill Dew Point Humidity Pressure Visibility Wind Dir Wind Speed Gust Speed Precip Events Conditions
12:06 AM 21.2 °F 12.6 °F 19.4 °F 93% 29.42 in 4.0 mi Variable 6.9 mph - N/A   Overcast
1:26 AM 21.2 °F 13.6 °F 19.4 °F 93% 29.42 in 10.0 mi Variable 5.8 mph - N/A   Overcast
2:05 AM 21.2 °F 14.9 °F 19.4 °F 93% 29.44 in 2.5 mi Variable 4.6 mph - 0.00 in Snow Light Snow
2:50 AM 21.2 °F 14.9 °F 21.2 °F 100% 29.43 in 1.0 mi East 4.6 mph - 0.04 in Snow Light Snow
3:34 AM 21.2 °F - 21.2 °F 100% 29.44 in 3.0 mi Calm Calm - 0.02 in Snow Light Snow
4:56 AM 21.0 °F - 19.0 °F 92% 29.55 in 10.0 mi Calm Calm - 0.00 in   Overcast
5:43 AM 21.2 °F - 19.4 °F 93% 29.45 in 10.0 mi Calm Calm - N/A   Overcast
7:01 AM 19.4 °F - 17.6 °F 93% 29.45 in 0.8 mi Calm Calm - N/A   Mostly Cloudy
7:06 AM 19.4 °F 14.3 °F 19.4 °F 100% 29.45 in 0.2 mi East 3.5 mph - N/A Fog Light Freezing Fog
7:11 AM 19.4 °F - 19.4 °F 100% 29.45 in 0.2 mi Calm Calm - N/A Fog Light Freezing Fog
7:56 AM 21.9 °F - 19.9 °F 92% 29.57 in 0.2 mi Calm Calm - N/A Fog Light Freezing Fog
9:05 AM 21.2 °F 16.4 °F 19.4 °F 93% 29.45 in 6.0 mi East 3.5 mph - N/A   Overcast
9:21 AM 21.2 °F 16.4 °F 19.4 °F 93% 29.45 in 1.8 mi Variable 3.5 mph - 0.00 in Snow Light Snow
9:56 AM 21.0 °F 14.6 °F 19.9 °F 96% 29.57 in 0.5 mi Variable 4.6 mph - 0.01 in Fog , Snow Light Snow
11:03 AM 21.2 °F 16.4 °F 19.4 °F 93% 29.47 in 0.5 mi Variable 3.5 mph - 0.01 in Fog , Snow Snow
11:20 AM 21.2 °F - 19.4 °F 93% 29.48 in 0.2 mi Calm Calm - 0.02 in Fog , Snow Snow
11:31 AM 21.2 °F 16.4 °F 19.4 °F 93% 29.48 in 0.5 mi Variable 3.5 mph - 0.02 in Fog , Snow Snow
12:28 PM 21.2 °F 14.9 °F 19.4 °F 93% 29.49 in 0.2 mi Variable 4.6 mph - 0.02 in Fog , Snow Snow
12:56 PM 21.9 °F 17.2 °F 19.9 °F 92% 29.61 in 0.2 mi East 3.5 mph - 0.07 in Fog , Snow Snow
1:41 PM 24.8 °F - 21.2 °F 86% 29.50 in 0.2 mi Calm Calm - 0.05 in Fog , Snow Snow
1:56 PM 24.1 °F - 21.9 °F 91% 29.61 in 0.5 mi Calm Calm - 0.06 in Fog , Snow Light Snow
4:56 PM 25.0 °F 17.1 °F 24.1 °F 96% 29.65 in 0.2 mi Variable 6.9 mph - 0.05 in Fog , Snow Snow
5:56 PM 25.0 °F - 23.0 °F 92% 29.66 in 0.5 mi North - - 0.06 in Fog , Snow Snow
6:56 PM 25.0 °F 19.3 °F 23.0 °F 92% 29.68 in 0.5 mi Variable 4.6 mph - 0.09 in Fog , Snow Light Snow
9:24 PM 24.8 °F 19.1 °F 23.0 °F 93% 29.61 in 0.5 mi Variable 4.6 mph - 0.04 in Fog , Snow Snow
10:16 PM 24.8 °F 16.9 °F 21.2 °F 86% 29.62 in 1.0 mi Variable 6.9 mph 18.4 mph 0.00 in Snow Light Snow
11:33 PM 23.0 °F 17.0 °F 21.2 °F 93% 29.63 in 0.5 mi Variable 4.6 mph - 0.01 in Fog , Snow Light Snow